Weather History for Park Rapids, MN

Change the Weather History Date:

Friday, August 5, 2011

  Actual Average Record
Temperature  
Mean Temperature 72 °F -  
Max Temperature 84 °F 81 °F 97 °F (2001)
Min Temperature 60 °F 54 °F 40 °F (1957)
Cooling Degree Days 7    
Growing Degree Days 22 (Base 50)    
Moisture  
Dew Point 62 °F    
Average Humidity 74    
Maximum Humidity 94    
Minimum Humidity 47    
Precipitation  
Precipitation 0.00 in - - ()
Sea Level Pressure  
Sea Level Pressure 29.95 in    
Wind  
Wind Speed 2 mph (SE)    
Max Wind Speed 16 mph    
Max Gust Speed 25 mph    
Visibility 10 miles    
Events      
Averages and records for this station are not official NWS values.
T = Trace of Precipitation, MM = Missing Value Source: NWS Daily Summary

Daily Weather History Graph

Daily Weather History Graph

Search for Another Location

Airport:

Trip Planner

Search our weather history database for the weather conditions in past years. The results will help you decide how hot, cold, wet, or windy it might be!

Date:

Astronomy

Aug. 05, 2011 Rise Set
Actual Time 6:04 AM CDT 8:47 PM CDT
Civil Twilight 5:29 AM CDT 9:21 PM CDT
Nautical Twilight 4:45 AM CDT 10:05 PM CDT
Astronomical Twilight 3:53 AM CDT 10:56 PM CDT
Moon 1:41 PM CDT (8/5) 11:25 PM CDT (8/5)
Length of Visible Light 15h 51m
Length of Day
14h 42m
Waxing Crescent, 41% of the Moon is Illuminated
Aug 5
Waxing Crescent
Aug 6
First Quarter
Aug 13
Full
Aug 21
Last Quarter
Aug 28
New

Hourly Weather History & Observations

Time (CDT) Temp. Heat Index Dew Point Humidity Pressure Visibility Wind Dir Wind Speed Gust Speed Precip Events Conditions
12:53 AM 66.9 °F - 63.0 °F 87% 29.96 in 10.0 mi Calm Calm - N/A   Clear
1:53 AM 66.0 °F - 62.1 °F 87% 29.96 in 10.0 mi Calm Calm - N/A   Clear
2:53 AM 64.9 °F - 62.1 °F 90% 29.96 in 10.0 mi Calm Calm - N/A   Clear
3:53 AM 64.0 °F - 61.0 °F 90% 29.96 in 10.0 mi Calm Calm - N/A   Clear
4:53 AM 63.0 °F - 61.0 °F 93% 29.95 in 10.0 mi Calm Calm - N/A   Clear
5:53 AM 61.0 °F - 59.0 °F 93% 29.96 in 10.0 mi Calm Calm - N/A   Clear
6:18 AM 60.8 °F - 59.0 °F 94% 29.98 in 9.0 mi Calm Calm - N/A   Partly Cloudy
6:38 AM 60.8 °F - 59.0 °F 94% 29.97 in 10.0 mi Calm Calm - N/A   Mostly Cloudy
6:53 AM 62.1 °F - 60.1 °F 93% 29.96 in 10.0 mi Calm Calm - N/A   Partly Cloudy
7:53 AM 66.9 °F - 64.0 °F 90% 29.97 in 10.0 mi Calm Calm - N/A   Clear
8:53 AM 72.0 °F - 66.0 °F 81% 29.98 in 10.0 mi Calm Calm - N/A   Clear
9:53 AM 75.9 °F - 64.0 °F 67% 29.97 in 10.0 mi Calm Calm - N/A   Clear
10:53 AM 80.6 °F 82.3 °F 64.4 °F 58% 29.98 in 10.0 mi SE 8.1 mph - N/A   Clear
11:53 AM 80.1 °F 81.5 °F 63.0 °F 56% 29.96 in 10.0 mi SE 6.9 mph - N/A   Clear
12:53 PM 82.0 °F 83.4 °F 64.0 °F 54% 29.95 in 10.0 mi South 9.2 mph - N/A   Clear
1:53 PM 82.0 °F 83.0 °F 62.1 °F 51% 29.94 in 10.0 mi SSE 4.6 mph - N/A   Clear
2:53 PM 82.9 °F 84.0 °F 63.0 °F 51% 29.94 in 10.0 mi Calm Calm - N/A   Clear
3:53 PM 84.0 °F 84.5 °F 62.1 °F 47% 29.91 in 10.0 mi Variable 6.9 mph - N/A   Clear
4:53 PM 84.0 °F 84.9 °F 63.0 °F 49% 29.89 in 10.0 mi SW 9.2 mph - N/A   Scattered Clouds
5:53 PM 82.9 °F 84.0 °F 63.0 °F 51% 29.92 in 10.0 mi West 4.6 mph - N/A   Partly Cloudy
6:16 PM 73.4 °F - 62.6 °F 69% 29.94 in 10.0 mi North 16.1 mph 25.3 mph N/A   Mostly Cloudy
6:53 PM 73.9 °F - 62.1 °F 66% 29.94 in 10.0 mi NNE 10.4 mph - N/A   Scattered Clouds
7:53 PM 73.0 °F - 62.1 °F 68% 29.92 in 10.0 mi East 5.8 mph - N/A   Clear
8:53 PM 71.1 °F - 60.1 °F 68% 29.91 in 10.0 mi Calm Calm - N/A   Clear
9:53 PM 69.1 °F - 60.1 °F 73% 29.92 in 10.0 mi Calm Calm - N/A   Clear
10:53 PM 64.9 °F - 61.0 °F 87% 29.92 in 10.0 mi Calm Calm - N/A   Clear
11:53 PM 66.9 °F - 62.1 °F 84% 29.91 in 10.0 mi Calm Calm - N/A   Clear